Location: Gamarra
(10.0780°N, 67.4929°W)
Time: 15:24:57
(UTC+00:00)

Daily predictions for brighter satellites

Satellite Brightness Start Highest point End
(mag) Time Altitude Azimuth Time Altitude Azimuth Time Altitude Azimuth
DELTA 4 R/B 4.2 22:51:12 10° SW 22:58:56 39° SSE 23:06:34 10° E
Cosmos 2242 Rocket 3.6 22:56:22 10° N 23:00:43 61° E 23:05:06 10° SSE
Meteor 1-4 Rocket 2.0 23:00:12 10° N 23:03:11 63° E 23:06:09 10° SSE
H-2A R/B 4.2 14:48:56 10° WSW 23:03:50 72° SSE 23:09:52 10° ENE
SKYMED 3 4.4 23:03:54 10° NNE 23:07:59 85° E 23:12:06 10° S
Cosmos 1954 Rocket 4.5 23:03:17 10° N 23:08:15 41° ENE 23:13:10 10° SE
Cosmos 1408 3.1 23:06:11 10° NNE 23:08:51 27° E 23:11:29 10° SE
BREEZE-M DEB (TANK) 3.6 23:09:57 10° NNE 23:11:35 15° ENE 23:13:16 11° E
Cosmos 1455 3.6 23:10:11 10° SE 23:12:23 16° E 23:14:35 10° NE
Cosmos 2074 Rocket 4.0 23:06:41 10° N 23:12:47 59° E 23:18:50 10° SSE
Tiangong -2.1 23:11:21 10° SW 23:14:22 56° SE 23:17:23 10° ENE
IGS 5A 3.3 23:11:04 10° SSE 23:15:08 74° ENE 23:19:12 10° N
ADEOS Rocket 3.2 23:11:08 10° SSE 23:16:46 45° ENE 23:22:01 10° N
NOSS 3-1 (A) 3.9 23:15:15 10° SSE 23:18:50 22° ESE 23:22:24 10° ENE
Cosmos 1242 Rocket 3.4 23:16:39 10° NNE 23:18:55 20° E 23:20:17 15° ESE
Cosmos 1953 2.8 23:16:11 10° SSE 23:19:40 35° E 23:23:09 10° NNE
CZ-4B R/B 4.2 23:17:18 11° ESE 23:19:55 20° ENE 23:22:44 10° NNE
COSMOS 2406 3.9 23:15:01 10° N 23:20:05 32° ENE 23:25:07 10° SE
Cosmos 1818 3.5 23:16:56 10° NNW 23:22:21 74° ENE 23:27:44 10° SSE
Cosmos 1607 4.2 23:16:28 10° N 23:22:33 49° ENE 23:28:29 10° SE
Cosmos 2369 Rocket 3.0 23:20:11 10° SSW 23:25:46 56° WNW 23:31:19 10° N
ADEOS 3.8 23:22:56 10° SSE 23:27:55 48° ENE 23:32:53 10° N
Meteor PRIRODA 3.7 23:24:41 10° SSE 23:27:57 45° ENE 23:31:12 10° N
CZ-3C R/B 3.5 23:18:11 10° WNW 23:33:21 37° SW 23:36:43 12° SSE
CZ-4B R/B 3.5 23:31:06 10° S 23:36:13 84° WSW 23:41:12 10° NNW
Atlas Centaur 2 2.3 23:30:32 10° WSW 23:36:20 62° NNW 23:40:44 11° NE
EPKM 4.2 23:36:32 10° SW 23:40:15 62° SSE 23:57:07 10° ENE
NOSS 3-1 (C) 3.4 23:36:29 10° SW 23:41:00 56° WNW 23:45:37 10° NNE
DELTA 2 DEB (DPAF) 3.9 23:41:54 10° NNE 23:46:05 64° ESE 23:50:15 10° S
GPS 2-17 Rocket1 4.3 23:46:00 10° NW 23:49:47 28° N 23:51:27 22° NE
Centaur D AC-29 2.8 23:49:50 10° SSW 23:54:18 21° SSE 23:54:40 20° SSE
